Zurück zum Katalog

STARLINK-6084

AktivKommunikationVLEO
NORAD 56111·PAYLOAD·🇺🇸 United States

Gestartet Mar 29, 2023 von Cape Canaveral Space Force Station

Loading…

Nächste Überflüge (nächste 24 Stunden)

TLE

AktuellSource: CelesTrak SupGP

Epoche: Sep 14, 2026, 22:24 UTC

1 56111C 23046U   26257.93381944 -.00024667  00000+0 -89347-3 0  2579
2 56111  43.0014 173.2659 0001539 262.1983 270.3490 15.27589817    19

Verfolge STARLINK-6084 in Echtzeit mit AllMySat

Download on the App Store